| time (UTC) | temp C | wind direction | speed KPH | gust KPH | rain 1hr cm | rain 24hr cm | rain mn cm | humidity % | barometer mb |
| 20260506150802 | 13 | 286 | 1.6 | 9.7 | 0.00 | 0.00 | 0.00 | 74 | 1013.9 |
| 20260506150304 | 13 | 339 | 1.6 | 8.0 | 0.00 | 0.00 | 0.00 | 74 | 1013.9 |
| 20260506145803 | 13 | 325 | 3.2 | 9.7 | 0.00 | 0.00 | 0.00 | 75 | 1013.9 |
| 20260506145305 | 13 | 153 | 4.8 | 9.7 | 0.00 | 0.00 | 0.00 | 74 | 1013.9 |
| 20260506144302 | 13 | 136 | 4.8 | 11.3 | 0.00 | 0.00 | 0.00 | 73 | 1013.9 |
| 20260506143803 | 13 | 182 | 1.6 | 9.7 | 0.00 | 0.00 | 0.00 | 72 | 1013.9 |
| 20260506143302 | 13 | 210 | 4.8 | 14.5 | 0.00 | 0.00 | 0.00 | 73 | 1013.8 |
| 20260506142802 | 13 | 233 | 1.6 | 3.2 | 0.00 | 0.00 | 0.00 | 73 | 1013.9 |
| 20260506141802 | 13 | 145 | 1.6 | 8.0 | 0.00 | 0.00 | 0.00 | 73 | 1014.0 |
| 20260506141302 | 12 | 179 | 3.2 | 9.7 | 0.00 | 0.00 | 0.00 | 74 | 1014.0 |
| 20260506140803 | 12 | 141 | 6.4 | 11.3 | 0.00 | 0.00 | 0.00 | 74 | 1014.0 |
| 20260506134803 | 12 | 253 | 1.6 | 8.0 | 0.00 | 0.00 | 0.00 | 74 | 1014.0 |
| 20260506134303 | 12 | 220 | 1.6 | 4.8 | 0.00 | 0.00 | 0.00 | 74 | 1014.1 |
| 20260506133802 | 12 | 217 | 1.6 | 4.8 | 0.00 | 0.00 | 0.00 | 75 | 1014.0 |
| 20260506133303 | 12 | 309 | 3.2 | 9.7 | 0.00 | 0.00 | 0.00 | 75 | 1014.1 |
| 20260506132306 | 12 | 165 | 1.6 | 8.0 | 0.00 | 0.00 | 0.00 | 76 | 1014.1 |
| 20260506131804 | 12 | 224 | 1.6 | 4.8 | 0.00 | 0.00 | 0.00 | 76 | 1014.1 |
| 20260506130804 | 12 | 144 | 1.6 | 9.7 | 0.00 | 0.00 | 0.00 | 77 | 1014.2 |
| 20260506130304 | 12 | 227 | 1.6 | 9.7 | 0.00 | 0.00 | 0.00 | 77 | 1014.2 |
| 20260506125305 | 11 | 174 | 3.2 | 9.7 | 0.00 | 0.00 | 0.00 | 77 | 1014.3 |
| 20260506124804 | 11 | 41 | 1.6 | 4.8 | 0.00 | 0.00 | 0.00 | 77 | 1014.3 |
| 20260506124304 | 11 | 181 | 3.2 | 9.7 | 0.00 | 0.00 | 0.00 | 76 | 1014.3 |
| 20260506123804 | 11 | 162 | 1.6 | 8.0 | 0.00 | 0.00 | 0.00 | 76 | 1014.2 |
| 20260506123303 | 11 | 163 | 0.0 | 3.2 | 0.00 | 0.00 | 0.00 | 76 | 1014.2 |
| 20260506122803 | 11 | 140 | 1.6 | 4.8 | 0.00 | 0.00 | 0.00 | 76 | 1014.2 |
| 20260506122306 | 11 | 349 | 0.0 | 1.6 | 0.00 | 0.00 | 0.00 | 76 | 1014.2 |
| 20260506121803 | 11 | 165 | 0.0 | 9.7 | 0.00 | 0.00 | 0.00 | 76 | 1014.2 |
| 20260506121303 | 11 | 146 | 0.0 | 3.2 | 0.00 | 0.00 | 0.00 | 75 | 1014.2 |
| 20260506120803 | 11 | 180 | 0.0 | 3.2 | 0.00 | 0.00 | 0.00 | 74 | 1014.3 |
| 20260506115804 | 11 | 189 | 1.6 | 4.8 | 0.00 | 0.00 | 0.00 | 74 | 1014.3 |
| 20260506115306 | 11 | 296 | 0.0 | 4.8 | 0.00 | 0.00 | 0.00 | 74 | 1014.3 |
| 20260506114803 | 11 | 179 | 1.6 | 8.0 | 0.00 | 0.00 | 0.00 | 73 | 1014.3 |
| 20260506114303 | 11 | 202 | 1.6 | 4.8 | 0.00 | 0.00 | 0.00 | 73 | 1014.3 |
| 20260506113805 | 11 | 251 | 0.0 | 4.8 | 0.00 | 0.00 | 0.00 | 75 | 1014.3 |
| 20260506113304 | 11 | 310 | 1.6 | 8.0 | 0.00 | 0.00 | 0.00 | 74 | 1014.2 |
| 20260506112804 | 11 | 332 | 3.2 | 4.8 | 0.00 | 0.00 | 0.00 | 73 | 1014.3 |
| 20260506112306 | 12 | 312 | 3.2 | 8.0 | 0.00 | 0.00 | 0.00 | 72 | 1014.2 |
| 20260506111804 | 12 | 309 | 3.2 | 9.7 | 0.00 | 0.00 | 0.00 | 72 | 1014.2 |
| 20260506111304 | 12 | 317 | 1.6 | 8.0 | 0.00 | 0.00 | 0.00 | 72 | 1014.2 |
| 20260506110804 | 12 | 325 | 1.6 | 4.8 | 0.00 | 0.00 | 0.00 | 72 | 1014.2 |
| 20260506110304 | 13 | 305 | 3.2 | 8.0 | 0.00 | 0.00 | 0.00 | 70 | 1014.2 |
| 20260506105805 | 13 | 317 | 0.0 | 1.6 | 0.00 | 0.00 | 0.00 | 67 | 1014.2 |
| 20260506105305 | 13 | 313 | 0.0 | 3.2 | 0.00 | 0.00 | 0.00 | 67 | 1014.1 |
| 20260506104804 | 13 | 337 | 0.0 | 3.2 | 0.00 | 0.00 | 0.00 | 68 | 1014.1 |
| 20260506103804 | 14 | 156 | 1.6 | 4.8 | 0.00 | 0.00 | 0.00 | 68 | 1014.1 |
| 20260506103304 | 14 | 151 | 1.6 | 4.8 | 0.00 | 0.00 | 0.00 | 69 | 1014.1 |
| 20260506102806 | 13 | 150 | 0.0 | 4.8 | 0.00 | 0.00 | 0.00 | 71 | 1014.1 |
| 20260506102305 | 13 | 117 | 0.0 | 4.8 | 0.00 | 0.00 | 0.00 | 73 | 1014.1 |
| 20260506101804 | 12 | 99 | 0.0 | 8.0 | 0.00 | 0.00 | 0.00 | 72 | 1014.1 |
| 20260506100804 | 13 | 90 | 3.2 | 9.7 | 0.00 | 0.00 | 0.00 | 72 | 1014.3 |
| 20260506100305 | 13 | 107 | 3.2 | 8.0 | 0.00 | 0.00 | 0.00 | 71 | 1014.3 |
| 20260506095306 | 13 | 98 | 1.6 | 8.0 | 0.00 | 0.00 | 0.00 | 72 | 1014.3 |
| 20260506094806 | 13 | 75 | 0.0 | 4.8 | 0.00 | 0.00 | 0.00 | 73 | 1014.3 |
| 20260506094305 | 12 | 114 | 1.6 | 4.8 | 0.00 | 0.00 | 0.00 | 74 | 1014.4 |
| 20260506093806 | 12 | 138 | 3.2 | 8.0 | 0.00 | 0.00 | 0.00 | 75 | 1014.4 |
| 20260506093305 | 12 | 141 | 3.2 | 8.0 | 0.00 | 0.00 | 0.00 | 73 | 1014.4 |
| 20260506091805 | 12 | 116 | 1.6 | 8.0 | 0.00 | 0.00 | 0.00 | 73 | 1014.4 |
| 20260506091307 | 12 | 154 | 0.0 | 3.2 | 0.00 | 0.00 | 0.00 | 73 | 1014.4 |
| 20260506090805 | 12 | 183 | 0.0 | 1.6 | 0.00 | 0.00 | 0.00 | 74 | 1014.4 |
| 20260506090305 | 11 | 184 | 1.6 | 3.2 | 0.00 | 0.00 | 0.00 | 75 | 1014.4 |
| 20260506085805 | 11 | 104 | 1.6 | 3.2 | 0.00 | 0.00 | 0.00 | 74 | 1014.5 |
| 20260506084806 | 11 | 271 | 0.0 | 1.6 | 0.00 | 0.00 | 0.00 | 78 | 1014.6 |
| 20260506084305 | 11 | 271 | 0.0 | 1.6 | 0.00 | 0.00 | 0.00 | 78 | 1014.5 |
| 20260506083807 | 11 | 116 | 0.0 | 0.0 | 0.00 | 0.00 | 0.00 | 79 | 1014.6 |
| 20260506082806 | 10 | 14 | 0.0 | 0.0 | 0.00 | 0.00 | 0.00 | 79 | 1014.6 |
| 20260506081807 | 10 | 54 | 0.0 | 1.6 | 0.00 | 0.00 | 0.00 | 82 | 1014.7 |
| 20260506081307 | 10 | 114 | 0.0 | 1.6 | 0.00 | 0.00 | 0.00 | 82 | 1014.7 |
| 20260506080806 | 10 | 115 | 0.0 | 1.6 | 0.00 | 0.00 | 0.00 | 83 | 1014.7 |
| 20260506080305 | 10 | 110 | 0.0 | 0.0 | 0.00 | 0.00 | 0.00 | 83 | 1014.7 |
| 20260506073306 | 9 | 115 | 0.0 | 1.6 | 0.00 | 0.00 | 0.00 | 87 | 1014.5 |
| 20260506072807 | 9 | 297 | 0.0 | 1.6 | 0.00 | 0.00 | 0.00 | 87 | 1014.5 |
| 20260506072306 | 9 | 292 | 0.0 | 1.6 | 0.00 | 0.00 | 0.00 | 88 | 1014.5 |
| 20260506071306 | 8 | 298 | 0.0 | 0.0 | 0.00 | 0.00 | 0.00 | 89 | 1014.5 |
| 20260506070306 | 8 | 312 | 1.6 | 3.2 | 0.00 | 0.00 | 0.00 | 89 | 1014.4 |
| 20260506061807 | 8 | 322 | 0.0 | 1.6 | 0.00 | 0.00 | 0.00 | 90 | 1014.3 |
| 20260506060808 | 8 | 294 | 0.0 | 1.6 | 0.00 | 0.00 | 0.00 | 90 | 1014.3 |
| 20260506060306 | 8 | 296 | 0.0 | 1.6 | 0.00 | 0.00 | 0.00 | 90 | 1014.2 |
| 20260506050807 | 8 | 105 | 0.0 | 0.0 | 0.00 | 0.00 | 0.00 | 92 | 1014.2 |
| 20260506050308 | 8 | 105 | 0.0 | 0.0 | 0.00 | 0.00 | 0.00 | 92 | 1014.1 |
| 20260506044807 | 8 | 105 | 0.0 | 0.0 | 0.00 | 0.00 | 0.00 | 92 | 1014.1 |
| 20260506043307 | 8 | 105 | 0.0 | 0.0 | 0.00 | 0.00 | 0.00 | 92 | 1014.2 |
| 20260506042307 | 8 | 105 | 0.0 | 1.6 | 0.00 | 0.00 | 0.00 | 93 | 1014.3 |
| 20260506041807 | 8 | 105 | 0.0 | 1.6 | 0.00 | 0.00 | 0.00 | 93 | 1014.2 |
| 20260506041308 | 8 | 105 | 0.0 | 1.6 | 0.00 | 0.00 | 0.00 | 93 | 1014.2 |
| 20260506040807 | 8 | 99 | 0.0 | 0.0 | 0.00 | 0.00 | 0.00 | 93 | 1014.3 |
| 20260506040307 | 8 | 99 | 0.0 | 0.0 | 0.00 | 0.00 | 0.00 | 93 | 1014.3 |
| 20260506035309 | 8 | 99 | 0.0 | 0.0 | 0.00 | 0.00 | 0.00 | 93 | 1014.5 |
| 20260506034807 | 8 | 99 | 0.0 | 0.0 | 0.00 | 0.00 | 0.00 | 93 | 1014.5 |
| 20260506033309 | 8 | 99 | 0.0 | 1.6 | 0.00 | 0.00 | 0.00 | 92 | 1014.5 |
| 20260506032808 | 8 | 104 | 0.0 | 1.6 | 0.00 | 0.00 | 0.00 | 92 | 1014.6 |
| 20260506032309 | 8 | 292 | 0.0 | 0.0 | 0.00 | 0.00 | 0.00 | 92 | 1014.6 |
| 20260506031309 | 8 | 292 | 0.0 | 0.0 | 0.00 | 0.00 | 0.00 | 92 | 1014.6 |
| 20260506030808 | 8 | 292 | 0.0 | 0.0 | 0.00 | 0.00 | 0.00 | 92 | 1014.6 |
| 20260506030310 | 8 | 292 | 0.0 | 0.0 | 0.00 | 0.00 | 0.00 | 92 | 1014.6 |
| 20260506025813 | 8 | 292 | 0.0 | 0.0 | 0.00 | 0.00 | 0.00 | 92 | 1014.6 |
| 20260506025332 | 8 | 292 | 0.0 | 0.0 | 0.00 | 0.00 | 0.00 | 92 | 1014.6 |
| 20260506023808 | 8 | 292 | 0.0 | 0.0 | 0.00 | 0.00 | 0.00 | 92 | 1014.6 |
| 20260506023309 | 8 | 292 | 0.0 | 0.0 | 0.00 | 0.00 | 0.00 | 92 | 1014.7 |
| 20260506022809 | 8 | 292 | 0.0 | 0.0 | 0.00 | 0.00 | 0.00 | 91 | 1014.7 |
| 20260506022308 | 8 | 292 | 0.0 | 0.0 | 0.00 | 0.00 | 0.00 | 91 | 1014.7 |
| 20260506021810 | 8 | 292 | 0.0 | 0.0 | 0.00 | 0.00 | 0.00 | 91 | 1014.7 |
| 20260506021308 | 8 | 292 | 0.0 | 0.0 | 0.00 | 0.00 | 0.00 | 91 | 1014.7 |
| 20260506020810 | 8 | 292 | 0.0 | 0.0 | 0.00 | 0.00 | 0.00 | 91 | 1014.7 |
| 20260506015809 | 8 | 292 | 0.0 | 0.0 | 0.00 | 0.00 | 0.00 | 91 | 1014.7 |
| 20260506015309 | 8 | 292 | 0.0 | 0.0 | 0.00 | 0.00 | 0.00 | 91 | 1014.7 |
| 20260506013309 | 8 | 292 | 0.0 | 0.0 | 0.00 | 0.00 | 0.00 | 91 | 1014.8 |
| 20260506012809 | 8 | 294 | 0.0 | 0.0 | 0.00 | 0.00 | 0.00 | 91 | 1014.9 |
| 20260506012309 | 8 | 294 | 0.0 | 0.0 | 0.00 | 0.00 | 0.00 | 91 | 1014.9 |
| 20260506011809 | 8 | 294 | 0.0 | 0.0 | 0.00 | 0.00 | 0.00 | 91 | 1015.0 |
| 20260506011310 | 8 | 294 | 0.0 | 0.0 | 0.00 | 0.00 | 0.00 | 91 | 1015.0 |
| 20260506010809 | 8 | 294 | 0.0 | 1.6 | 0.00 | 0.00 | 0.00 | 91 | 1015.0 |
| 20260506010310 | 8 | 276 | 0.0 | 1.6 | 0.00 | 0.00 | 0.00 | 90 | 1015.1 |
| 20260506005809 | 9 | 275 | 0.0 | 1.6 | 0.00 | 0.00 | 0.00 | 90 | 1015.1 |
| 20260506005309 | 9 | 275 | 0.0 | 1.6 | 0.00 | 0.00 | 0.00 | 90 | 1015.0 |
| 20260506004810 | 9 | 275 | 0.0 | 1.6 | 0.00 | 0.00 | 0.00 | 90 | 1015.0 |
| 20260506004311 | 9 | 275 | 0.0 | 0.0 | 0.00 | 0.00 | 0.00 | 90 | 1015.0 |
| 20260506003815 | 9 | 275 | 0.0 | 0.0 | 0.00 | 0.00 | 0.00 | 90 | 1015.1 |
| 20260506003311 | 9 | 275 | 0.0 | 1.6 | 0.00 | 0.00 | 0.00 | 90 | 1015.1 |
| 20260506002809 | 9 | 273 | 0.0 | 1.6 | 0.00 | 0.00 | 0.00 | 90 | 1015.1 |
| 20260506002311 | 9 | 267 | 0.0 | 1.6 | 0.00 | 0.00 | 0.00 | 90 | 1015.1 |
| 20260506001809 | 9 | 263 | 0.0 | 1.6 | 0.00 | 0.00 | 0.00 | 90 | 1015.1 |
| 20260506001310 | 9 | 266 | 0.0 | 1.6 | 0.00 | 0.00 | 0.00 | 89 | 1015.1 |
| 20260506000809 | 9 | 266 | 0.0 | 1.6 | 0.00 | 0.00 | 0.00 | 89 | 1015.1 |
| 20260506000311 | 9 | 266 | 0.0 | 1.6 | 0.00 | 0.00 | 0.00 | 89 | 1015.2 |
| 20260505235309 | 9 | 275 | 0.0 | 1.6 | 0.00 | 0.00 | 0.00 | 88 | 1015.1 |
| 20260505234809 | 9 | 267 | 0.0 | 1.6 | 0.00 | 0.00 | 0.00 | 88 | 1015.1 |
| 20260505233810 | 9 | 224 | 0.0 | 0.0 | 0.00 | 0.00 | 0.00 | 87 | 1015.2 |
| 20260505232811 | 9 | 224 | 0.0 | 0.0 | 0.00 | 0.00 | 0.00 | 87 | 1015.3 |
| 20260505231311 | 10 | 224 | 0.0 | 0.0 | 0.00 | 0.00 | 0.00 | 87 | 1015.3 |
| 20260505230827 | 10 | 224 | 0.0 | 0.0 | 0.00 | 0.00 | 0.00 | 87 | 1015.3 |
| 20260505230310 | 10 | 224 | 0.0 | 0.0 | 0.00 | 0.00 | 0.00 | 87 | 1015.5 |
| 20260505225311 | 10 | 224 | 0.0 | 0.0 | 0.00 | 0.00 | 0.00 | 87 | 1015.5 |
| 20260505224810 | 10 | 224 | 0.0 | 0.0 | 0.00 | 0.00 | 0.00 | 86 | 1015.5 |
| 20260505223812 | 10 | 224 | 0.0 | 0.0 | 0.00 | 0.00 | 0.00 | 87 | 1015.6 |
| 20260505223311 | 10 | 224 | 0.0 | 1.6 | 0.00 | 0.00 | 0.00 | 87 | 1015.6 |
| 20260505222810 | 10 | 224 | 0.0 | 1.6 | 0.00 | 0.00 | 0.00 | 87 | 1015.7 |
| 20260505222310 | 10 | 140 | 0.0 | 0.0 | 0.00 | 0.00 | 0.00 | 86 | 1015.7 |
| 20260505221810 | 10 | 140 | 0.0 | 0.0 | 0.00 | 0.00 | 0.00 | 86 | 1015.7 |
| 20260505221311 | 10 | 140 | 0.0 | 0.0 | 0.00 | 0.00 | 0.00 | 86 | 1015.8 |
| 20260505220810 | 10 | 140 | 0.0 | 0.0 | 0.00 | 0.00 | 0.00 | 86 | 1015.7 |
| 20260505220312 | 10 | 140 | 0.0 | 0.0 | 0.00 | 0.00 | 0.00 | 87 | 1015.7 |
| 20260505215811 | 10 | 140 | 0.0 | 0.0 | 0.00 | 0.00 | 0.00 | 87 | 1015.7 |
| 20260505214310 | 10 | 127 | 0.0 | 1.6 | 0.00 | 0.00 | 0.00 | 87 | 1015.7 |
| 20260505213812 | 10 | 124 | 0.0 | 1.6 | 0.00 | 0.00 | 0.00 | 87 | 1015.7 |
| 20260505213313 | 10 | 118 | 0.0 | 1.6 | 0.00 | 0.00 | 0.00 | 88 | 1015.7 |
| 20260505212810 | 10 | 118 | 0.0 | 1.6 | 0.00 | 0.00 | 0.00 | 88 | 1015.7 |
| 20260505212311 | 10 | 120 | 0.0 | 1.6 | 0.00 | 0.00 | 0.00 | 87 | 1015.7 |
| 20260505211311 | 10 | 140 | 0.0 | 1.6 | 0.00 | 0.00 | 0.00 | 87 | 1015.7 |
| 20260505210311 | 10 | 137 | 0.0 | 1.6 | 0.00 | 0.00 | 0.00 | 87 | 1015.7 |
| 20260505205311 | 10 | 149 | 0.0 | 0.0 | 0.00 | 0.00 | 0.00 | 87 | 1015.7 |
| 20260505204811 | 10 | 163 | 0.0 | 1.6 | 0.00 | 0.00 | 0.00 | 86 | 1015.8 |
| 20260505203313 | 10 | 142 | 0.0 | 0.0 | 0.00 | 0.00 | 0.00 | 86 | 1015.7 |
| 20260505202812 | 10 | 145 | 0.0 | 1.6 | 0.00 | 0.00 | 0.00 | 86 | 1015.7 |
| 20260505202316 | 10 | 144 | 0.0 | 1.6 | 0.00 | 0.00 | 0.00 | 86 | 1015.7 |
| 20260505201811 | 10 | 143 | 0.0 | 0.0 | 0.00 | 0.00 | 0.00 | 86 | 1015.8 |
| 20260505201311 | 10 | 144 | 0.0 | 1.6 | 0.00 | 0.00 | 0.00 | 86 | 1015.8 |
| 20260505200811 | 10 | 126 | 0.0 | 1.6 | 0.00 | 0.00 | 0.00 | 86 | 1015.8 |
| 20260505200311 | 10 | 129 | 0.0 | 3.2 | 0.00 | 0.00 | 0.00 | 86 | 1015.8 |
| 20260505195811 | 10 | 149 | 0.0 | 3.2 | 0.00 | 0.00 | 0.00 | 86 | 1015.7 |
| 20260505195312 | 10 | 124 | 1.6 | 3.2 | 0.00 | 0.00 | 0.00 | 85 | 1015.7 |
| 20260505194811 | 10 | 144 | 0.0 | 1.6 | 0.00 | 0.00 | 0.00 | 85 | 1015.6 |
| 20260505194312 | 10 | 201 | 0.0 | 3.2 | 0.00 | 0.00 | 0.00 | 85 | 1015.6 |
| 20260505193813 | 10 | 161 | 0.0 | 3.2 | 0.00 | 0.00 | 0.00 | 85 | 1015.5 |
| 20260505193311 | 10 | 150 | 0.0 | 3.2 | 0.00 | 0.00 | 0.00 | 85 | 1015.5 |
| 20260505192812 | 10 | 129 | 0.0 | 1.6 | 0.00 | 0.00 | 0.00 | 85 | 1015.5 |
| 20260505192311 | 11 | 174 | 0.0 | 1.6 | 0.00 | 0.00 | 0.00 | 85 | 1015.6 |
| 20260505191812 | 11 | 150 | 0.0 | 1.6 | 0.00 | 0.00 | 0.00 | 85 | 1015.6 |
| 20260505191312 | 10 | 165 | 0.0 | 1.6 | 0.00 | 0.00 | 0.00 | 84 | 1015.6 |
| 20260505190312 | 11 | 132 | 0.0 | 1.6 | 0.00 | 0.00 | 0.00 | 84 | 1015.5 |
| 20260505185812 | 11 | 129 | 0.0 | 1.6 | 0.00 | 0.00 | 0.00 | 85 | 1015.5 |
| 20260505185312 | 11 | 132 | 0.0 | 1.6 | 0.00 | 0.00 | 0.00 | 84 | 1015.4 |
| 20260505184812 | 11 | 156 | 0.0 | 1.6 | 0.00 | 0.00 | 0.00 | 85 | 1015.5 |
| 20260505184312 | 11 | 145 | 0.0 | 1.6 | 0.00 | 0.00 | 0.00 | 84 | 1015.5 |
| 20260505183814 | 11 | 143 | 1.6 | 4.8 | 0.00 | 0.00 | 0.00 | 84 | 1015.4 |
| 20260505183313 | 11 | 160 | 0.0 | 3.2 | 0.00 | 0.00 | 0.00 | 84 | 1015.4 |
| 20260505182813 | 11 | 6 | 0.0 | 0.0 | 0.00 | 0.00 | 0.00 | 84 | 1015.4 |
| 20260505182312 | 11 | 131 | 0.0 | 1.6 | 0.00 | 0.00 | 0.00 | 84 | 1015.4 |
| 20260505181312 | 11 | 200 | 1.6 | 4.8 | 0.00 | 0.00 | 0.00 | 84 | 1015.3 |
| 20260505180813 | 11 | 156 | 3.2 | 9.7 | 0.00 | 0.00 | 0.00 | 84 | 1015.3 |
| 20260505180312 | 11 | 165 | 4.8 | 9.7 | 0.00 | 0.00 | 0.00 | 84 | 1015.4 |
| 20260505175812 | 11 | 143 | 1.6 | 8.0 | 0.00 | 0.00 | 0.00 | 84 | 1015.4 |
| 20260505175312 | 11 | 153 | 3.2 | 8.0 | 0.00 | 0.00 | 0.00 | 84 | 1015.5 |
| 20260505174812 | 11 | 143 | 3.2 | 9.7 | 0.00 | 0.00 | 0.00 | 83 | 1015.5 |
| 20260505174313 | 11 | 141 | 1.6 | 4.8 | 0.00 | 0.00 | 0.00 | 82 | 1015.5 |
| 20260505173814 | 11 | 110 | 3.2 | 8.0 | 0.00 | 0.00 | 0.00 | 80 | 1015.5 |
| 20260505172813 | 12 | 99 | 1.6 | 8.0 | 0.00 | 0.03 | 0.00 | 76 | 1015.6 |
| 20260505172313 | 12 | 114 | 0.0 | 1.6 | 0.00 | 0.03 | 0.00 | 76 | 1015.6 |
| 20260505171814 | 12 | 110 | 0.0 | 3.2 | 0.00 | 0.03 | 0.00 | 76 | 1015.5 |
| 20260505171313 | 12 | 126 | 0.0 | 1.6 | 0.00 | 0.03 | 0.00 | 77 | 1015.5 |
| 20260505170813 | 12 | 107 | 0.0 | 1.6 | 0.00 | 0.03 | 0.00 | 77 | 1015.5 |
| 20260505170312 | 12 | 128 | 0.0 | 1.6 | 0.00 | 0.03 | 0.00 | 77 | 1015.6 |
| 20260505165812 | 12 | 238 | 0.0 | 1.6 | 0.00 | 0.03 | 0.00 | 78 | 1015.6 |
| 20260505165314 | 12 | 282 | 1.6 | 4.8 | 0.00 | 0.03 | 0.00 | 77 | 1015.7 |
| 20260505164812 | 12 | 293 | 0.0 | 9.7 | 0.00 | 0.03 | 0.00 | 77 | 1015.7 |
| 20260505164313 | 12 | 310 | 4.8 | 8.0 | 0.00 | 0.03 | 0.00 | 76 | 1015.7 |
| 20260505163813 | 12 | 312 | 4.8 | 9.7 | 0.00 | 0.03 | 0.00 | 75 | 1015.8 |
| 20260505163315 | 12 | 319 | 3.2 | 9.7 | 0.00 | 0.03 | 0.00 | 76 | 1015.7 |
| 20260505162813 | 12 | 312 | 6.4 | 9.7 | 0.00 | 0.03 | 0.00 | 76 | 1015.7 |
| 20260505162312 | 12 | 314 | 3.2 | 9.7 | 0.00 | 0.03 | 0.00 | 76 | 1015.7 |
| 20260505161815 | 12 | 310 | 6.4 | 9.7 | 0.00 | 0.03 | 0.00 | 76 | 1015.7 |
| 20260505161314 | 12 | 313 | 6.4 | 9.7 | 0.00 | 0.03 | 0.00 | 75 | 1015.6 |
| 20260505160813 | 12 | 313 | 8.0 | 12.9 | 0.00 | 0.03 | 0.00 | 75 | 1015.6 |
| 20260505160314 | 13 | 313 | 8.0 | 11.3 | 0.00 | 0.03 | 0.00 | 75 | 1015.7 |
| 20260505153315 | 13 | 281 | 1.6 | 8.0 | 0.00 | 0.03 | 0.00 | 72 | 1015.8 |
| 20260505152815 | 13 | 308 | 4.8 | 11.3 | 0.00 | 0.03 | 0.00 | 72 | 1015.8 |
| 20260505152313 | 13 | 299 | 3.2 | 8.0 | 0.00 | 0.03 | 0.00 | 72 | 1015.8 |
| 20260505151814 | 13 | 279 | 1.6 | 9.7 | 0.00 | 0.03 | 0.00 | 73 | 1015.8 |